Wind_Gust
11 20 20 20 20 13 10 8 9 9 9 9 9 11 9 14 12 10 9 10 9 15 18 19 20 18 16 15 14 15 17 18 20 20 19 18 18 18 18 19 18 18 18 17 17 18 17 19 20 19 19 20 19 19 19 19 19 19 21 20 19 18 18 18 17 17 17 16 18 18 15 15 15 15 13 13 12 12 12 12 13 12 13 14 13 13
17 19 19 15 12 10 9 9 10 11 9 11 11 13 13 14 12 13 11 11 10 15 12 13 17 20 19 16 15 14 17 22 21 20 19 19 18 18 17 18 18 17 17 18 17 18 18 20 18 18 19 18 20 19 18 19 20 20 20 19 19 17 18 18 17 16 16 17 19 14 14 14 15 14 14 14 13 13 12 11 12 13 13 14 14 13
18 22 15 10 10 11 10 10 11 10 11 11 17 10 18 16 10 12 9 9 10 14 12 11 16 17 15 16 17 17 20 19 18 18 20 18 19 20 19 18 17 16 17 18 19 18 20 19 18 19 18 18 19 17 18 18 19 18 19 20 17 18 18 18 17 18 18 15 13 14 12 14 12 11 11 11 11 12 12 11 11 12 12 13 14 14
16 21 14 11 13 14 12 12 13 13 13 16 15 19 20 19 16 16 16 10 13 14 16 14 17 14 12 14 16 17 19 20 16 16 18 18 19 19 18 17 17 18 18 19 20 21 20 19 19 17 17 16 16 16 17 19 19 20 20 18 18 18 17 17 19 17 15 14 13 13 12 11 11 12 13 12 11 13 12 12 12 12 12 12 13 14
14 18 15 12 14 15 15 13 15 18 17 11 13 15 18 10 10 19 15 8 10 12 13 15 21 22 18 17 19 18 17 18 18 17 20 20 20 19 17 18 17 17 18 19 19 20 21 21 21 20 18 17 18 18 19 20 20 20 20 20 18 18 18 17 16 17 15 15 15 14 13 13 13 12 14 14 15 15 14 13 13 13 12 12 13 13
15 12 11 14 15 16 15 17 17 16 17 14 13 12 13 8 14 8 9 14 19 19 15 14 23 21 14 15 16 14 17 18 17 18 21 19 19 19 21 20 18 18 17 19 19 22 22 22 20 19 18 19 19 21 21 20 20 18 19 19 18 18 17 18 17 17 18 17 17 18 17 18 17 17 17 17 16 17 16 15 12 12 13 12 11 12
14 12 12 13 17 17 17 17 11 12 18 15 15 11 9 10 11 10 14 13 19 19 18 12 20 21 13 15 14 13 15 16 16 18 21 19 20 20 20 19 21 21 20 18 18 20 21 21 21 21 21 21 20 20 19 20 19 19 19 20 21 19 18 18 17 19 18 18 19 18 17 16 17 16 16 14 13 14 14 13 13 13 13 13 13 12
16 14 14 12 16 19 18 21 17 16 18 15 15 11 10 11 11 11 14 15 22 13 16 13 19 22 23 16 15 11 14 17 17 19 21 20 19 20 19 18 17 19 20 21 21 21 21 22 23 23 22 22 22 19 19 19 20 20 20 19 20 19 19 19 18 20 21 20 19 18 17 17 17 16 15 14 14 12 13 14 14 13 14 14 14 14
17 18 17 17 18 20 21 13 14 15 20 14 11 10 11 10 9 12 15 16 15 17 21 17 14 22 23 18 15 13 20 20 21 21 20 20 19 19 19 20 19 18 19 19 21 21 22 23 23 22 23 22 21 20 20 21 20 20 20 19 19 20 19 20 19 20 20 20 19 19 18 17 17 16 15 15 15 15 14 14 14 14 14 15 15 15
11 8 10 14 19 21 14 10 13 16 22 14 12 16 14 11 12 13 18 14 10 16 16 12 9 24 25 19 15 15 18 20 19 21 22 20 17 16 18 19 19 16 16 18 18 20 22 22 22 22 21 21 22 20 20 19 19 19 19 20 19 20 20 20 20 21 21 20 20 20 19 18 18 17 17 16 16 16 15 16 15 15 16 15 16 15
13 9 9 13 20 13 13 13 8 11 12 16 14 15 16 16 15 13 16 14 16 15 17 12 10 17 26 17 15 14 19 17 18 14 14 15 15 16 17 18 18 17 16 16 18 18 21 21 21 21 22 21 21 19 20 20 20 19 20 20 20 20 20 19 21 21 21 21 20 20 19 20 19 18 17 17 17 17 16 16 17 16 16 15 15 15
16 14 16 15 9 10 10 15 9 9 13 16 19 20 16 19 15 18 16 15 16 19 16 11 8 12 20 12 14 16 11 11 12 15 16 16 17 20 18 19 17 14 14 13 16 17 18 20 20 21 22 22 22 21 22 21 21 21 21 21 21 21 21 20 21 21 21 21 20 18 18 18 17 17 18 19 18 18 17 16 16 16 16 15 15 15
23 24 19 14 10 14 19 19 16 15 15 20 19 19 19 16 15 16 21 17 19 14 16 12 11 16 24 23 21 18 17 16 14 16 19 19 20 19 15 17 12 12 13 15 15 16 18 20 22 22 22 22 22 24 23 24 23 22 22 22 23 22 21 20 20 20 20 20 19 20 19 18 18 17 17 17 17 16 17 17 17 16 16 16 16 16
22 19 21 20 14 20 19 26 21 22 24 23 24 20 20 19 17 12 16 13 18 15 11 12 10 22 20 20 13 17 15 11 11 14 16 17 18 19 19 16 14 13 13 14 14 16 18 19 20 21 22 23 24 23 24 25 24 23 23 23 23 22 22 21 20 21 21 20 20 19 19 19 19 18 18 17 17 18 17 17 16 16 16 16 15 15
16 22 28 22 26 23 28 28 20 16 22 27 20 21 21 21 22 14 18 16 15 12 15 14 13 14 15 18 11 11 15 16 13 14 15 16 17 17 17 17 17 15 13 14 15 16 17 18 18 20 21 22 23 23 25 24 25 24 23 24 24 22 22 22 21 21 21 21 20 19 19 19 18 19 19 18 17 16 16 15 16 16 15 15 14 15
18 21 19 20 13 21 25 22 14 15 15 16 15 16 20 25 15 23 14 17 14 14 14 19 16 11 17 16 15 15 14 17 14 13 13 14 14 13 14 15 14 14 14 14 14 15 15 16 18 19 20 21 22 23 24 25 25 25 25 25 25 24 23 23 22 21 21 21 20 19 19 19 18 18 18 18 17 16 16 15 16 15 14 14 14 14
15 25 18 14 12 13 17 14 17 13 24 22 21 25 18 14 18 14 8 12 7 16 26 13 20 21 16 22 16 13 11 14 12 12 12 11 11 12 14 14 13 14 13 13 15 15 14 15 16 18 19 20 21 23 24 26 26 25 25 25 26 25 22 23 23 23 21 20 20 21 21 20 19 19 19 18 17 16 16 15 15 14 14 14 14 14
16 16 17 20 19 11 7 12 12 13 15 22 22 20 17 12 14 14 19 12 14 19 19 13 20 19 14 22 14 12 13 14 13 13 12 13 11 12 13 13 12 13 12 12 14 13 13 14 16 17 17 19 20 21 23 24 24 25 24 24 25 25 25 23 23 22 21 21 21 21 22 21 21 21 21 20 18 18 18 17 17 16 16 15 14 14
23 23 21 14 12 16 12 16 16 12 11 20 18 22 25 18 19 22 18 19 17 19 22 20 19 23 18 20 13 15 15 15 15 12 13 14 12 13 14 14 12 10 11 12 13 13 14 15 15 17 17 17 18 20 21 24 24 23 23 23 24 24 23 22 22 21 22 21 20 21 22 22 23 21 21 20 19 19 19 19 18 18 18 16 15 16
19 24 19 13 15 15 17 21 24 21 16 12 14 19 11 17 20 15 24 20 23 20 18 19 17 25 16 15 12 15 14 14 15 14 14 14 13 14 14 14 13 11 12 13 13 14 15 15 16 17 17 18 18 19 19 20 22 22 23 23 23 23 22 22 22 22 22 22 21 20 21 22 23 22 22 20 21 21 21 20 20 19 17 17 17 17
21 16 25 19 10 19 25 28 26 22 23 24 25 25 20 24 12 20 14 22 24 22 21 22 23 22 19 16 15 15 16 15 15 16 15 15 14 13 14 14 13 12 13 14 14 15 16 16 15 15 15 17 18 18 19 20 21 22 22 22 23 24 24 24 24 24 24 23 23 21 22 23 23 22 22 20 21 21 21 20 19 19 17 17 17 16
20 24 24 19 22 24 24 19 18 19 22 25 27 26 24 23 21 23 25 22 26 29 26 24 28 23 20 13 16 19 17 18 17 16 17 16 16 14 13 13 14 14 14 15 14 14 15 15 15 14 16 15 17 19 20 21 20 20 21 22 23 25 25 24 25 25 24 23 23 22 23 23 22 23 22 20 21 21 21 20 20 19 17 16 17 17
17 19 25 25 23 24 13 12 11 12 13 17 22 27 25 25 25 28 26 18 19 29 24 27 29 24 18 13 16 19 20 19 16 15 18 18 17 16 16 14 13 15 17 15 15 14 14 13 12 13 14 16 18 18 19 20 21 21 21 21 22 24 24 24 25 24 24 23 23 23 23 22 22 22 22 22 21 21 22 22 21 21 20 20 19 19
7 27 26 25 24 15 14 11 9 9 11 19 23 21 22 27 24 26 28 21 24 17 18 23 28 28 21 15 15 16 17 17 16 15 19 19 17 16 17 16 15 14 14 14 14 14 14 12 11 13 14 17 18 17 19 20 20 20 21 22 22 23 23 23 24 25 24 24 24 24 23 23 23 23 24 24 25 24 24 24 23 22 21 21 20 21
27 23 24 23 28 28 17 15 17 11 15 24 26 26 25 25 24 22 18 11 24 27 29 28 34 24 13 16 14 15 18 20 20 19 17 21 19 19 19 18 16 14 14 13 14 14 12 13 15 17 16 16 17 18 18 19 20 20 20 21 22 21 22 23 23 24 25 24 25 25 25 24 25 26 27 27 26 25 25 23 22 21 22 21 20 20
26 18 27 30 31 29 30 28 30 24 26 26 20 15 20 25 22 16 25 27 31 22 25 32 35 26 17 18 15 18 20 21 19 19 19 18 18 20 18 18 20 20 18 17 13 12 15 17 16 16 16 17 17 18 18 19 18 18 19 20 19 20 21 23 23 23 24 24 26 28 28 29 28 27 27 27 25 25 24 23 22 21 20 21 21 20
25 22 25 29 31 30 25 17 13 11 19 29 21 21 21 21 23 23 25 29 31 24 29 28 31 32 29 27 23 20 19 21 20 19 21 22 20 19 18 20 21 20 19 20 16 15 13 14 17 18 16 17 16 15 17 18 19 19 18 18 19 19 19 21 22 23 24 25 26 28 29 30 30 26 26 26 24 23 24 23 22 22 22 22 21 21
21 26 26 26 27 29 25 19 10 10 14 19 20 19 20 20 21 22 24 31 23 29 38 31 26 31 29 26 24 24 22 21 23 23 22 24 25 25 22 21 20 27 24 21 19 19 20 17 16 16 16 16 17 18 18 17 18 19 19 19 19 20 20 20 21 23 24 25 27 27 28 29 28 25 25 24 24 25 24 24 24 22 21 21 21 21
25 23 21 23 26 24 23 25 17 16 18 19 20 19 19 18 18 24 25 26 25 30 36 24 24 28 26 25 24 22 23 24 26 28 25 23 24 25 26 28 29 30 29 25 22 22 20 20 18 17 17 17 15 15 16 18 18 17 17 18 19 20 22 21 22 23 23 25 26 26 26 25 26 25 25 24 24 25 26 27 25 24 22 21 21 21
22 24 20 18 21 22 21 20 18 20 20 20 22 23 23 23 26 24 25 25 28 31 30 31 29 32 31 28 26 26 24 27 28 23 20 24 26 26 27 28 30 30 29 26 24 24 23 23 22 19 16 16 17 17 18 19 19 20 19 19 19 21 21 21 22 23 23 24 24 24 24 25 23 24 26 25 25 27 26 27 26 25 24 22 21 21
18 17 13 17 22 26 22 21 18 21 23 27 24 23 23 21 22 24 25 23 24 27 27 30 30 34 30 26 28 26 27 24 23 24 24 24 26 26 26 28 28 27 26 24 22 22 22 21 20 19 17 17 18 18 19 19 20 19 19 19 20 21 22 22 22 22 22 23 22 22 22 23 24 24 25 24 23 24 26 27 27 26 23 20 19 21
16 14 13 20 19 25 25 22 22 21 23 26 27 27 28 27 27 26 30 23 26 30 27 28 33 36 27 23 21 19 20 20 21 22 23 23 23 24 25 25 25 25 25 24 23 21 20 20 19 19 19 20 19 20 21 20 22 21 21 21 21 21 21 22 22 23 23 23 21 22 23 23 23 24 24 25 26 26 27 27 27 24 21 20 18 18
22 20 16 19 22 26 21 22 23 24 23 31 31 30 28 28 26 26 28 26 28 26 30 28 34 27 24 13 16 16 15 17 20 23 24 24 23 24 24 24 24 25 24 24 24 23 22 21 19 18 19 20 23 24 24 24 23 22 21 21 19 20 21 23 22 22 22 22 22 22 22 23 24 25 25 25 26 26 26 28 27 27 26 26 22 20
10 19 20 20 28 23 20 17 15 22 34 36 18 24 28 31 28 30 32 29 27 29 33 28 29 24 24 19 16 18 19 22 21 21 21 22 24 22 23 24 26 26 26 25 24 24 23 23 21 19 18 18 20 23 23 21 21 20 17 19 20 21 21 22 22 22 22 22 23 23 23 23 24 24 24 24 25 25 27 27 27 26 26 25 24 23
9 15 18 21 21 23 14 16 20 33 39 20 17 16 21 25 26 28 27 26 25 25 26 27 25 24 19 18 18 17 18 20 19 20 23 23 20 20 23 25 26 26 27 26 26 25 23 23 22 21 19 19 19 15 15 22 21 17 19 20 21 21 22 22 22 22 22 22 23 23 23 24 24 23 23 24 24 25 26 26 26 26 25 24 24 24
9 13 9 11 18 10 13 22 28 31 13 11 12 11 10 14 18 17 23 23 23 20 19 21 19 18 15 15 15 15 16 20 20 20 23 25 18 19 22 23 25 26 28 28 26 27 26 24 22 21 23 18 15 16 18 17 16 19 20 21 21 21 21 22 22 23 22 23 23 24 24 24 23 23 22 23 24 25 26 25 26 27 26 24 24 24
14 11 8 16 16 26 20 24 35 19 20 14 15 21 24 25 22 22 24 23 13 12 13 12 13 14 15 16 17 19 21 18 19 20 17 20 21 21 21 25 26 27 27 28 27 28 26 24 22 20 17 14 15 16 15 16 18 18 19 20 21 21 21 22 23 23 23 23 24 24 24 24 24 23 23 23 24 25 25 25 26 25 25 24 25 26
13 18 14 18 20 20 23 29 30 28 32 24 17 15 11 10 10 9 12 22 15 12 11 11 12 13 15 17 19 22 21 22 23 19 20 28 28 27 29 25 24 24 24 26 27 25 23 21 20 20 19 17 16 16 15 17 18 19 19 20 20 21 21 22 23 22 22 23 22 23 23 23 23 23 23 23 25 25 24 24 24 24 25 26 25 25
18 18 17 21 20 17 22 30 32 30 27 13 16 13 13 10 9 11 14 25 17 14 14 13 15 14 15 17 19 19 20 23 23 19 22 28 30 29 29 30 28 26 24 25 26 27 27 22 20 19 18 16 17 16 15 16 18 19 19 18 19 19 20 21 21 21 22 22 20 20 21 21 22 22 23 24 24 23 24 24 24 24 24 24 24 24
15 17 16 23 26 28 22 28 32 28 30 15 15 16 13 12 12 17 24 24 17 15 14 13 15 16 16 15 15 17 20 25 26 27 27 27 24 24 23 27 30 31 30 28 26 24 24 22 19 17 16 16 16 13 16 17 18 17 16 17 17 18 19 21 23 24 22 19 17 17 19 19 21 21 22 23 22 22 23 22 22 23 25 24 24 25
17 17 22 29 30 28 23 32 30 28 16 16 17 16 15 11 13 18 30 13 16 13 13 13 14 13 14 16 17 23 19 20 22 25 25 25 24 24 22 20 22 24 26 28 29 22 27 25 21 18 16 15 12 13 15 17 17 18 16 15 16 19 22 22 20 18 17 16 17 18 19 19 20 21 20 20 20 21 21 22 23 23 24 24 23 22
18 15 19 21 31 34 30 34 36 26 13 18 15 15 14 14 19 24 16 13 13 14 14 12 14 14 14 16 19 22 22 20 19 19 20 20 21 22 21 23 26 26 24 22 21 24 26 25 25 22 17 13 12 12 14 17 17 16 16 16 18 21 20 16 16 15 15 16 17 18 18 19 18 19 20 19 21 22 22 22 22 23 24 24 24 23
26 27 28 32 31 28 24 29 26 31 16 15 18 15 17 19 16 12 14 13 12 14 13 13 12 14 14 18 17 19 21 21 19 19 19 19 19 20 21 23 24 23 24 26 27 26 25 24 26 24 20 17 13 12 13 15 15 15 15 17 20 17 14 14 15 16 17 17 17 17 17 18 18 19 20 20 20 20 22 22 22 21 23 23 22 23
13 26 26 26 28 31 31 36 32 15 18 18 19 16 17 19 13 12 9 15 12 12 13 14 15 14 15 16 18 19 20 20 18 16 17 18 19 20 21 21 20 22 23 23 19 21 22 21 21 21 20 17 15 14 13 15 15 15 16 18 15 13 13 13 15 16 16 16 17 16 17 19 19 20 18 20 21 22 22 22 21 21 21 23 23 22
23 20 13 19 22 33 30 24 10 13 17 17 13 12 12 13 12 13 13 15 17 17 13 16 17 18 16 16 17 19 21 19 18 18 18 18 20 20 19 19 19 19 19 19 21 20 19 21 21 20 20 19 14 14 13 13 14 15 17 14 14 15 15 14 15 15 16 17 18 18 19 18 19 20 19 20 21 20 22 22 20 22 21 20 22 23
12 10 10 13 24 18 25 17 13 14 14 16 14 13 13 14 15 12 14 17 16 18 17 18 18 18 18 16 19 19 20 19 20 19 19 18 19 20 19 18 18 17 17 17 19 22 20 20 19 19 20 20 18 17 13 13 14 14 15 12 14 15 14 14 15 15 17 17 17 18 18 20 19 20 19 18 19 20 22 23 22 23 23 22 22 22
12 9 12 22 15 15 21 15 21 22 19 19 20 15 13 14 16 13 14 16 17 18 17 15 17 18 18 19 18 20 21 20 21 21 20 20 19 18 19 20 19 16 16 18 17 18 20 19 22 22 21 19 16 16 16 13 15 16 13 11 13 15 15 15 15 14 15 16 16 14 16 16 18 19 18 17 20 22 22 23 23 22 21 23 24 25
16 15 18 20 19 22 21 11 13 11 14 12 13 16 16 17 16 14 15 15 17 17 17 17 17 19 18 19 18 19 20 20 21 20 21 21 20 19 18 19 20 21 18 17 16 15 15 16 18 19 20 20 19 18 17 16 17 15 14 12 12 13 14 15 16 16 16 16 15 15 16 17 11 15 17 18 19 21 22 23 23 23 23 24 26 26
11 13 14 13 22 20 19 23 25 24 24 22 18 19 20 19 17 17 15 15 16 18 19 19 17 19 20 21 20 21 21 21 20 20 21 22 20 20 19 19 18 17 17 18 14 12 14 15 17 17 17 19 18 18 17 17 17 16 13 12 13 14 15 15 14 15 14 15 16 15 15 16 16 18 17 18 18 20 22 23 23 24 22 21 23 26
16 19 14 14 20 21 22 19 15 22 20 17 13 14 16 16 17 17 18 20 20 20 20 21 21 19 20 20 21 21 22 22 21 20 21 21 20 19 19 19 18 17 17 16 15 13 13 14 15 16 17 18 17 18 18 17 17 16 17 15 13 15 15 15 15 15 18 16 16 16 16 16 17 17 18 19 19 19 19 5 7 12 22 23 13 15
19 18 18 22 21 23 17 14 14 18 21 20 21 21 20 19 19 20 21 22 22 21 22 22 23 21 21 20 20 22 22 23 22 21 21 20 21 20 19 18 18 17 17 16 16 16 13 15 15 17 18 18 15 17 18 18 17 17 16 17 14 16 17 16 17 20 20 19 18 17 18 18 17 18 19 20 20 20 20 20 16 8 9 8 7 14
Wind_Speed
1 8 8 8 8 4 3 1 2 2 2 1 2 4 0 5 3 2 2 3 2 6 6 7 8 9 6 5 5 6 7 8 8 9 8 8 8 8 8 9 9 9 9 9 9 10 10 10 10 9 9 10 10 10 10 10 11 11 10 11 11 9 9 8 8 8 5 3 4 9 6 4 4 4 3 3 3 3 3 3 4 4 4 4 4 4
7 7 8 5 4 3 2 1 2 1 2 4 3 5 4 5 1 4 3 2 1 6 1 1 7 8 8 7 6 5 8 9 9 9 10 10 9 8 9 9 9 8 7 10 9 10 10 9 9 9 8 9 10 8 9 11 11 11 11 11 9 8 9 9 8 7 6 7 8 5 4 4 4 5 5 4 4 4 3 4 3 4 4 4 4 4
7 9 6 3 3 3 2 3 3 3 4 3 6 2 6 4 1 2 2 2 1 4 3 2 6 5 6 7 7 8 9 8 8 9 9 9 10 9 9 9 8 8 8 9 10 10 10 11 10 8 8 9 9 8 9 10 11 10 10 9 9 9 9 9 9 8 8 7 6 5 3 4 3 3 3 4 4 4 4 4 4 4 4 4 4 4
6 9 6 4 4 5 4 5 5 5 5 6 5 7 7 8 5 3 6 1 2 3 6 6 7 5 3 5 7 8 8 8 8 8 8 8 8 9 9 8 8 9 9 10 11 12 11 11 10 9 8 8 8 8 9 10 11 9 9 9 10 9 10 9 10 9 7 6 5 4 3 4 4 4 4 3 4 5 5 5 5 5 4 4 4 4
1 9 7 5 7 7 7 6 7 7 6 3 5 5 7 2 1 8 5 1 2 4 5 6 8 8 7 7 7 8 7 7 8 8 9 10 10 9 8 9 8 9 9 10 11 11 11 12 11 11 10 9 9 8 9 10 10 9 10 10 10 9 10 8 8 9 7 6 6 5 5 4 4 3 5 6 6 6 6 5 6 5 4 4 4 4
4 5 4 7 7 8 7 7 7 6 7 4 6 5 5 2 6 1 2 6 6 7 3 5 7 7 3 5 6 5 6 8 7 9 10 10 10 10 11 11 9 9 9 10 10 12 12 12 11 11 10 10 9 9 9 9 10 10 9 10 10 9 9 9 10 10 9 8 7 7 6 7 6 6 6 7 7 7 6 6 5 5 5 5 4 4
4 5 5 6 9 9 8 8 4 4 7 5 5 2 2 4 3 3 6 4 7 7 6 4 7 6 3 6 5 4 6 7 6 9 9 9 9 10 10 9 10 10 10 10 10 10 12 12 12 12 11 11 10 10 9 9 9 10 9 9 10 9 9 9 10 10 9 9 9 9 8 6 6 6 5 5 5 5 5 4 5 5 5 5 5 5
6 6 6 5 8 9 8 9 8 7 6 4 7 1 3 4 4 4 6 6 8 5 7 5 7 8 8 6 5 4 6 8 8 9 9 9 10 10 9 8 8 9 10 10 12 12 12 13 13 13 13 12 11 10 9 9 9 11 11 10 11 9 9 9 9 11 10 9 10 10 8 7 7 6 5 6 5 4 4 5 5 4 5 5 5 5
9 9 9 9 10 8 9 5 6 7 7 3 3 3 4 3 2 5 5 6 5 6 7 6 6 7 8 6 6 5 10 10 11 10 10 10 10 9 9 9 8 9 10 10 10 12 13 13 13 13 13 13 12 11 11 11 10 10 10 10 10 11 10 10 11 11 11 10 10 9 8 8 7 7 6 6 6 6 5 5 5 5 5 5 6 6
3 1 3 7 8 8 6 2 4 5 10 6 4 3 2 4 4 5 7 5 2 5 6 3 1 8 8 8 5 7 7 9 8 9 9 7 5 5 6 7 5 6 7 9 9 11 12 13 13 13 12 12 11 11 11 10 9 9 10 11 11 12 11 10 12 11 12 12 10 10 9 10 9 8 7 7 7 6 6 7 6 6 6 6 6 7
5 3 2 4 8 4 3 5 1 4 2 5 6 6 6 6 6 4 5 5 5 5 6 3 2 6 7 7 5 4 4 5 6 5 4 3 1 2 1 2 2 4 6 7 9 10 12 12 12 12 13 12 12 10 11 10 10 10 11 11 12 12 10 11 12 12 12 12 11 10 11 11 10 10 9 8 8 7 7 7 8 7 7 6 6 6
8 6 6 5 2 1 2 4 2 1 4 6 6 7 5 7 5 7 5 5 5 6 6 3 1 5 8 3 4 4 1 3 4 6 7 7 7 6 3 1 1 2 4 5 7 9 10 11 12 12 13 13 13 12 11 11 10 11 12 12 13 13 12 11 12 12 12 11 11 10 10 10 10 10 8 9 9 9 9 8 7 7 7 7 7 7
11 10 9 6 2 7 9 9 6 6 6 8 7 7 7 5 3 4 7 6 6 3 6 4 3 6 9 8 9 7 6 4 3 5 6 6 7 7 5 4 3 1 3 5 6 7 9 10 12 13 13 13 13 13 13 12 12 12 12 13 14 14 13 11 11 12 12 12 11 10 10 10 9 9 9 8 8 8 8 8 8 7 7 7 7 7
9 10 12 10 6 9 9 11 7 9 10 10 10 8 7 7 5 4 5 4 5 3 3 3 1 8 9 8 2 1 1 1 1 2 3 4 5 6 7 5 4 3 2 4 5 7 8 9 10 12 12 13 13 14 13 13 13 12 12 14 14 13 13 12 12 12 12 12 11 10 10 10 9 9 9 8 8 9 8 7 8 7 7 7 7 7
5 9 12 11 9 12 13 13 7 6 10 11 10 8 8 8 6 4 5 5 5 2 6 6 4 2 6 7 2 2 3 4 4 5 5 6 6 6 6 6 6 5 3 5 6 7 8 9 10 10 11 12 12 14 14 13 13 13 13 14 14 13 13 13 12 11 12 11 11 10 10 10 9 9 9 8 7 7 7 6 7 6 6 6 6 6
9 7 7 10 4 11 14 13 6 6 5 6 5 6 8 10 5 8 4 6 5 4 4 7 4 2 4 4 4 5 5 7 7 6 6 6 6 6 6 5 4 4 4 3 5 6 8 9 10 9 10 11 11 14 13 15 14 14 14 15 15 14 13 13 13 12 11 11 10 11 11 11 10 9 9 8 7 7 7 7 6 6 6 6 6 5
5 9 11 6 6 5 9 7 8 5 8 8 8 10 6 3 7 1 2 3 2 5 8 4 7 7 5 9 5 0 3 3 3 4 5 4 4 5 5 4 4 3 2 2 2 4 7 7 9 9 10 10 11 12 14 15 15 15 15 15 16 15 13 14 13 13 12 11 11 11 12 11 11 10 10 9 9 9 8 7 7 6 6 6 6 5
5 6 9 10 11 5 1 5 4 6 4 5 8 6 7 1 5 3 5 3 4 7 4 3 8 7 3 2 4 2 4 2 3 3 2 3 4 5 3 3 3 2 1 1 2 2 4 6 8 8 9 10 11 13 13 15 15 14 14 14 15 15 15 14 13 13 11 12 11 12 12 12 12 11 11 10 10 9 9 8 8 7 7 7 6 5
9 8 9 8 5 8 5 6 7 4 4 8 6 8 9 6 9 8 4 8 6 7 6 8 9 10 7 6 2 2 3 4 4 4 5 4 4 3 3 4 2 2 3 2 2 4 5 6 7 8 8 9 10 11 12 13 13 13 13 13 14 15 14 13 12 12 11 11 9 10 12 13 12 11 11 11 10 10 9 10 9 9 8 8 7 7
7 8 4 5 7 7 7 8 9 9 7 4 3 7 3 5 8 5 6 8 7 8 7 8 7 7 4 3 1 5 4 5 5 6 5 6 5 3 3 3 3 2 1 1 1 2 4 6 7 8 8 9 10 11 10 12 11 13 13 13 14 13 13 13 13 13 12 12 11 11 11 12 12 12 11 11 11 10 10 10 10 10 9 8 7 7
7 6 9 6 4 8 9 9 11 9 9 10 10 10 7 8 2 7 3 7 8 7 7 7 8 7 7 2 3 5 5 6 6 7 6 5 5 4 4 3 4 5 3 2 2 2 4 5 6 7 8 8 9 9 10 10 12 12 12 12 13 14 14 14 13 13 13 12 12 12 13 13 13 13 11 11 11 11 10 9 9 9 8 7 7 7
5 9 10 7 9 9 11 9 10 10 11 11 11 11 10 10 9 10 10 8 10 9 8 8 10 8 3 3 2 5 5 7 8 7 7 6 6 5 5 5 4 5 5 4 2 3 3 4 6 6 8 7 8 10 11 11 11 12 12 12 12 13 13 13 13 13 13 12 12 13 13 13 13 13 12 12 11 11 10 10 10 9 8 8 9 9
6 6 9 10 9 10 4 6 3 4 6 8 9 12 12 11 10 10 10 7 7 11 12 12 11 9 2 3 3 6 6 8 8 6 8 8 7 7 6 6 6 5 6 5 5 3 2 3 4 6 7 9 10 10 11 11 11 11 12 12 12 12 13 13 13 13 12 12 12 14 13 12 12 12 13 13 12 12 12 12 12 11 11 10 9 10
3 7 10 10 12 4 6 4 2 2 4 9 11 10 10 12 12 11 11 8 9 7 6 8 10 8 10 6 6 5 7 8 7 7 10 9 8 8 9 8 8 7 5 4 4 4 3 3 5 6 7 8 9 9 10 10 10 10 11 12 11 13 13 13 13 13 13 13 13 14 13 13 13 14 14 14 13 14 13 12 11 10 10 10 9 10
6 8 10 9 9 10 7 4 6 4 5 9 10 12 13 13 14 12 9 3 9 13 16 11 12 8 3 6 5 6 9 11 10 9 8 10 10 10 10 9 7 7 6 5 5 4 4 5 6 6 7 8 8 9 9 10 10 10 10 11 11 11 12 12 12 12 13 14 14 14 14 15 14 15 15 15 13 14 14 13 11 10 10 10 10 9
10 7 10 12 13 13 12 11 11 10 11 10 11 8 11 15 14 7 9 11 13 11 15 12 12 11 5 8 6 7 10 11 9 9 10 8 10 10 9 9 10 11 10 8 7 5 6 6 7 7 8 8 8 8 9 9 9 9 10 11 10 10 11 12 11 12 13 13 14 14 15 16 15 16 17 16 14 14 13 12 11 11 10 10 10 9
7 10 12 13 14 13 12 7 6 5 8 12 12 13 12 12 13 12 11 12 13 11 12 14 16 15 16 15 13 11 9 10 11 11 11 12 11 11 10 11 11 11 11 12 9 7 6 7 8 9 9 8 8 8 8 8 9 9 9 10 10 9 10 11 11 12 13 13 14 14 15 16 17 14 15 15 13 12 12 12 11 11 11 10 11 10
8 10 14 17 17 16 15 12 3 3 7 11 12 11 13 12 12 13 10 13 12 13 16 13 15 16 16 15 13 14 12 12 13 13 13 13 14 14 12 12 14 16 14 12 11 11 10 9 9 9 9 9 8 8 8 8 9 9 9 9 9 9 9 9 11 12 13 13 13 14 15 15 16 14 14 13 12 12 12 12 12 11 11 10 11 10
10 8 13 14 17 16 15 16 11 9 11 11 12 12 12 11 11 14 15 15 15 12 15 14 15 17 14 14 13 13 11 12 13 15 15 14 13 15 16 17 17 18 18 15 13 13 12 12 10 9 9 9 8 8 8 8 9 8 8 8 9 9 10 10 10 11 12 13 13 13 13 13 13 13 14 13 12 13 13 13 12 11 10 10 10 9
7 10 12 11 12 13 13 12 10 12 12 12 13 14 15 14 16 15 15 16 17 19 18 18 18 19 17 16 14 15 14 14 15 13 11 13 14 14 15 15 17 17 17 16 13 13 13 14 13 12 9 9 9 9 9 9 9 10 9 9 9 9 9 9 10 11 11 12 12 12 12 13 12 13 14 14 14 14 13 13 12 10 10 10 10 9
7 4 6 9 10 14 14 13 11 12 14 15 15 15 15 14 14 15 15 15 15 16 17 18 19 19 14 14 15 15 14 12 11 12 13 12 13 12 13 14 15 16 15 14 13 13 12 12 12 12 10 9 10 10 10 9 10 9 9 9 10 10 10 10 10 10 11 11 11 11 12 11 11 12 14 13 12 13 14 14 12 12 12 10 10 10
4 2 4 9 7 12 14 14 13 13 14 16 17 17 18 18 17 14 12 12 14 17 17 18 18 15 12 11 11 7 8 10 11 11 12 12 13 13 14 14 14 14 14 14 13 12 11 11 11 11 11 11 11 11 11 10 10 10 10 10 10 10 10 10 10 11 11 11 11 11 12 11 12 12 13 13 13 14 14 13 12 12 11 8 6 6
7 7 4 6 9 11 12 13 14 15 13 15 17 17 18 18 16 14 16 16 16 16 15 13 15 12 12 4 7 8 8 8 11 12 13 14 13 13 13 12 12 13 14 14 14 13 13 12 11 10 10 11 11 11 12 12 11 11 10 11 10 9 10 11 11 11 11 11 11 11 11 12 12 13 13 13 14 13 13 14 14 13 13 13 12 10
4 9 6 8 10 10 13 11 8 9 15 14 9 15 17 18 17 18 17 17 17 16 13 12 14 13 14 10 6 7 7 8 9 11 11 11 10 9 9 11 12 13 13 13 13 13 13 12 11 10 10 10 11 11 11 11 10 9 9 9 10 11 10 11 11 11 11 11 12 12 12 12 12 13 13 13 13 13 14 15 14 13 13 12 13 12
3 4 6 8 7 9 5 6 8 15 15 10 9 6 12 16 16 18 17 17 15 15 17 16 14 12 7 5 5 4 5 6 8 10 11 7 6 6 9 11 12 14 15 14 14 14 13 13 13 13 11 10 9 8 7 9 9 9 10 10 11 11 11 11 11 11 11 12 12 12 12 12 12 12 12 12 13 13 14 14 14 14 12 12 11 11
2 3 1 1 5 2 4 8 10 10 3 2 6 6 4 8 11 11 14 14 14 11 8 11 9 4 3 3 3 3 5 8 9 10 3 4 6 7 9 10 12 13 14 13 14 14 14 13 13 12 10 8 7 7 8 8 8 9 10 10 10 10 11 11 11 12 12 12 12 13 12 12 12 12 12 12 12 13 13 13 14 14 12 12 10 11
3 2 0 5 5 9 7 10 14 8 6 7 5 10 10 10 11 11 9 10 3 2 4 5 3 1 3 3 4 5 7 8 9 5 6 7 8 8 9 9 11 12 12 13 12 13 13 13 12 12 10 8 7 7 7 7 9 9 9 10 10 10 11 11 12 12 12 12 12 13 13 13 12 12 12 12 13 13 13 13 14 13 12 12 12 10
6 6 2 5 4 6 8 10 10 11 13 10 9 5 4 4 3 0 4 9 7 5 3 3 4 3 4 3 4 7 8 9 10 8 2 10 10 10 10 8 10 11 11 13 13 13 13 11 10 11 10 10 8 8 7 8 8 9 10 10 10 11 11 11 12 12 12 12 12 12 12 12 12 12 12 12 13 13 12 12 11 12 12 12 11 12
10 9 6 7 5 6 10 11 10 11 8 1 7 7 5 3 3 4 5 11 6 6 4 2 2 3 4 5 6 6 7 9 9 6 6 11 11 10 11 11 11 11 12 13 14 15 15 12 11 11 10 9 8 7 7 8 9 9 9 9 9 10 10 11 11 10 11 10 10 10 10 11 11 11 12 12 13 12 12 12 12 11 11 11 11 11
9 8 7 10 11 10 8 8 10 4 8 5 8 8 5 3 5 7 9 8 8 5 2 1 2 3 4 5 5 6 8 11 11 8 10 11 10 10 11 12 13 13 12 13 13 13 14 13 9 9 8 8 7 5 7 8 8 8 7 8 8 9 9 9 9 9 8 8 8 8 9 9 11 11 11 12 11 11 11 10 10 11 11 10 10 10
6 5 9 13 13 13 14 11 9 7 2 8 9 8 7 5 4 6 11 2 6 3 3 2 4 4 6 7 8 9 9 9 10 10 11 12 11 9 9 10 11 11 11 12 12 13 13 13 11 9 9 7 4 4 6 7 7 7 7 7 7 8 8 7 7 7 7 7 7 8 9 9 10 11 11 10 10 10 10 9 10 11 11 11 10 10
7 5 7 9 14 15 13 14 12 9 3 10 7 7 7 6 6 10 2 4 4 3 3 2 5 4 6 7 8 9 10 10 10 9 11 11 10 9 9 10 10 11 9 9 10 11 12 12 14 13 9 7 5 3 4 6 6 7 7 7 7 7 7 6 6 5 5 6 7 8 8 9 9 10 9 9 9 10 10 9 10 10 12 11 11 12
10 8 11 13 10 10 9 11 10 13 4 8 10 6 8 8 4 3 3 4 2 4 2 4 3 5 5 8 9 10 11 11 11 9 9 10 10 10 9 9 9 10 11 11 11 12 11 11 13 14 12 9 7 5 3 5 6 6 6 7 7 6 6 6 5 6 6 6 7 7 8 9 10 9 8 9 10 10 10 9 10 10 11 11 11 11
5 8 8 9 10 11 12 12 8 1 6 9 10 5 6 8 3 2 2 4 3 3 4 3 4 4 5 7 9 10 11 11 10 9 9 9 9 9 9 8 9 9 9 9 8 9 10 8 9 10 12 9 7 6 5 4 5 5 6 7 6 6 5 5 5 5 5 6 7 7 8 9 10 10 9 10 10 10 10 10 10 10 9 10 10 10
9 8 2 6 9 9 9 9 2 4 8 8 6 2 1 2 2 2 3 3 4 4 2 5 5 5 5 6 8 9 10 10 10 9 9 9 10 10 10 10 9 10 9 8 7 8 8 8 9 9 10 10 8 6 6 6 6 5 7 6 6 7 6 6 5 5 5 6 7 7 8 8 9 10 10 10 10 10 10 10 10 9 9 9 10 9
4 1 1 3 6 6 11 5 3 3 4 7 4 1 3 4 3 2 4 6 4 5 4 5 6 6 7 7 8 9 10 10 11 10 10 10 10 10 10 9 9 8 8 7 7 6 6 7 7 8 8 9 10 8 6 5 6 7 5 5 5 6 6 6 6 6 6 6 6 7 8 9 10 11 10 9 9 9 9 10 10 9 9 9 10 10
3 3 0 4 4 4 6 7 13 12 10 10 10 8 7 5 5 5 5 7 7 6 6 5 6 7 8 9 10 10 11 11 11 11 11 10 10 10 10 10 9 8 8 9 6 5 5 5 7 7 7 7 7 7 8 6 5 4 4 3 4 6 6 6 7 6 6 5 5 5 6 7 8 9 8 8 8 8 8 9 10 10 10 9 10 11
4 6 5 8 6 6 4 3 2 1 3 1 4 6 7 8 9 7 6 6 6 7 7 7 7 9 9 10 10 10 11 12 12 11 11 11 10 9 9 10 10 9 8 8 6 5 5 6 8 9 7 6 6 6 7 7 8 6 4 4 2 3 5 6 7 7 6 6 5 5 6 7 4 5 6 7 7 8 8 9 10 10 10 10 11 11
4 6 5 5 8 8 10 12 12 13 14 13 10 9 9 9 8 7 7 7 7 8 9 9 9 9 9 11 11 11 12 12 12 11 11 11 11 10 10 9 9 9 9 9 6 4 6 5 6 8 8 8 7 6 7 7 7 7 6 4 4 4 5 6 7 7 7 6 5 5 5 5 6 7 7 6 7 8 8 9 10 10 10 10 11 11
6 6 5 4 7 8 8 7 7 8 7 8 7 5 6 6 7 9 9 9 9 10 10 11 10 10 11 11 12 11 12 12 12 12 12 11 11 11 11 10 9 9 9 9 7 6 5 6 7 6 7 8 7 6 7 7 7 7 8 6 4 4 6 7 6 7 8 7 6 6 6 6 6 7 8 8 9 9 9 3 2 4 8 10 10 5
8 7 6 8 7 8 8 7 4 6 8 8 9 9 9 9 10 10 11 10 10 11 11 12 12 12 12 11 10 12 13 12 13 12 12 10 11 11 10 10 10 9 9 9 9 9 7 7 7 6 6 6 6 7 8 6 4 5 7 8 6 5 6 7 7 7 8 8 8 7 7 7 7 7 8 8 9 9 9 9 7 5 1 8 2 7
Wind_Direction
358 232 208 209 224 183 82 239 358 3 3 298 238 271 302 293 135 100 74 43 273 267 246 258 249 251 241 228 201 196 190 207 217 217 219 215 212 212 207 210 205 199 201 187 199 206 209 208 207 205 200 199 197 200 202 202 204 200 194 196 202 203 205 205 206 204 198 186 201 232 206 211 193 205 190 187 197 192 191 213 197 193 192 197 190 203
232 236 216 219 68 74 150 126 205 193 245 277 270 260 203 239 324 62 3 43 248 284 296 303 275 259 242 225 217 209 215 223 221 222 223 223 217 211 213 215 207 199 194 189 186 200 206 206 206 202 202 203 204 201 203 205 202 203 203 202 202 198 204 208 204 207 200 200 219 224 214 218 203 191 194 188 189 196 185 188 198 190 192 193 193 202
208 227 171 106 104 110 134 195 211 234 228 228 270 268 284 212 50 157 131 111 146 264 302 335 281 252 234 226 215 220 226 234 232 233 231 225 220 211 213 213 209 197 193 182 188 197 202 205 195 196 203 210 213 207 207 209 206 204 201 206 202 202 202 204 205 208 205 208 215 217 221 218 205 203 201 195 177 178 186 172 183 181 181 189 196 196
209 212 119 128 162 181 164 199 207 214 239 255 224 239 252 49 297 199 127 111 152 278 319 315 284 264 219 220 227 222 228 229 229 228 232 236 229 221 213 209 208 195 190 183 191 192 195 199 190 188 189 197 201 200 199 206 209 208 208 204 207 203 203 201 204 205 205 201 202 216 232 214 228 190 172 181 170 179 179 175 186 183 177 187 199 194
224 68 86 156 193 211 198 188 216 228 222 179 283 287 282 306 77 310 46 11 215 206 256 272 257 256 217 219 212 203 212 225 216 223 232 232 235 233 230 222 207 205 191 193 188 186 191 197 195 191 190 187 195 199 199 202 205 209 209 209 207 205 204 201 204 204 196 192 192 196 205 199 185 178 179 184 184 186 182 183 179 184 177 181 193 192
217 95 107 174 189 210 212 205 220 263 257 197 203 299 343 335 288 215 271 280 242 220 131 312 284 271 175 226 239 141 188 218 214 228 229 227 222 218 221 217 210 211 201 196 192 189 191 194 196 195 191 191 197 200 201 200 204 206 208 209 208 208 205 202 200 202 195 193 191 188 193 195 187 188 187 191 188 182 183 190 174 177 180 187 190 196
55 125 199 185 193 203 215 246 157 232 279 281 111 152 129 302 302 282 283 268 257 268 99 326 287 288 177 231 192 195 237 232 205 228 240 232 224 217 223 216 207 203 196 194 194 194 190 197 199 197 196 196 199 203 199 198 201 204 208 209 209 210 207 202 203 199 197 197 199 196 202 201 197 193 189 198 186 188 182 180 176 180 185 197 193 208
177 154 180 214 210 208 215 229 179 232 266 265 85 136 199 251 256 314 299 284 281 336 292 245 267 280 284 283 120 163 248 252 242 233 241 245 238 233 231 219 211 200 191 191 194 193 191 192 194 194 196 200 202 198 193 196 198 202 206 207 210 210 210 204 201 199 198 206 206 201 200 203 200 201 191 187 189 189 187 189 187 190 192 202 207 205
198 172 191 196 214 219 225 255 122 209 251 46 112 165 226 261 307 279 271 283 302 315 287 223 170 256 256 248 182 237 257 246 246 245 242 243 237 230 234 237 213 207 194 197 186 190 189 191 194 193 194 200 204 195 192 193 194 197 204 207 207 209 208 207 204 204 203 211 210 203 197 199 199 193 194 193 198 191 190 195 188 203 202 204 211 212
171 255 189 237 219 222 225 115 207 200 244 125 132 189 178 223 243 262 270 269 248 259 260 259 84 286 282 291 238 169 258 273 264 257 259 267 303 307 267 256 240 185 190 197 189 184 188 189 191 192 192 196 201 196 194 191 188 193 200 205 205 205 208 206 204 205 208 209 212 208 198 201 198 193 195 199 191 195 192 196 195 200 206 204 203 212
82 93 0 256 224 295 104 82 41 234 356 106 176 201 202 218 224 216 264 286 265 242 245 116 267 283 291 291 306 293 21 350 334 320 323 304 245 204 99 286 245 194 184 193 188 184 184 186 187 186 191 193 194 192 192 188 186 192 199 200 202 204 205 209 206 205 209 208 210 211 204 204 201 191 191 190 190 190 192 202 199 199 201 202 206 203
209 190 215 197 267 134 174 136 118 174 188 206 207 230 226 215 210 230 222 226 251 250 119 143 209 231 269 221 150 127 25 268 283 291 295 309 316 326 332 313 43 136 175 180 182 182 179 180 186 185 190 190 189 188 189 189 187 194 199 197 199 201 205 205 206 203 206 210 211 213 211 210 211 206 201 198 196 194 199 202 206 200 197 195 198 202
213 212 214 183 194 224 202 233 157 189 184 222 231 227 241 243 197 243 202 212 216 291 114 126 185 233 231 251 287 301 294 284 288 290 297 307 313 320 322 327 307 263 200 183 183 179 183 187 186 188 189 188 187 189 189 187 188 194 197 197 198 200 202 204 206 205 205 206 208 210 212 209 209 211 208 202 201 196 198 200 204 200 200 197 202 203
212 214 196 201 184 206 231 228 174 204 199 214 224 219 226 247 243 247 259 275 294 188 117 163 162 263 278 266 227 318 4 47 191 227 250 278 289 301 309 311 291 257 203 192 190 187 187 190 192 191 190 189 188 188 187 185 190 192 197 199 200 201 198 202 203 205 206 207 206 205 206 204 201 202 203 204 203 197 199 197 200 200 203 199 204 201
200 178 207 190 206 172 213 231 231 239 187 213 224 235 233 246 253 237 241 237 249 319 134 153 234 254 269 78 156 158 263 252 235 237 248 252 257 262 275 281 279 274 228 191 200 194 190 192 192 190 192 190 189 187 185 182 191 192 197 199 201 201 200 198 202 205 207 207 206 205 204 203 198 197 198 201 203 199 198 197 200 203 205 211 205 210
234 281 117 175 66 171 209 212 263 254 245 198 218 249 254 242 244 259 2 323 316 306 267 177 250 280 298 42 239 249 258 262 247 238 225 224 226 229 240 246 255 264 274 244 187 193 193 190 192 191 193 193 190 188 186 187 190 193 196 198 201 202 198 199 200 204 207 207 205 204 204 204 200 199 197 196 198 199 200 196 202 203 210 213 213 208
192 233 141 149 175 204 215 193 213 219 236 159 200 217 237 351 274 260 189 41 330 268 262 259 247 253 239 237 228 46 274 253 230 211 202 229 211 212 238 239 235 246 281 262 205 184 187 190 191 193 193 194 192 191 191 193 194 196 197 197 198 201 199 196 197 199 203 204 203 204 205 202 201 199 199 197 192 195 193 193 198 202 204 208 209 205
241 209 148 174 187 168 38 221 188 204 287 139 220 201 106 32 311 247 263 148 232 246 248 219 261 274 258 285 117 244 275 285 283 272 259 264 223 217 209 214 208 207 180 216 217 178 188 196 195 195 196 196 194 194 192 194 197 202 200 200 198 198 198 195 191 197 202 202 203 203 203 203 202 199 199 198 193 190 190 193 196 199 199 200 203 207
222 253 170 193 180 135 160 176 185 188 238 259 315 110 209 180 218 201 248 250 249 256 268 246 263 271 264 267 224 240 283 316 297 303 296 277 262 259 240 227 200 162 165 187 203 189 188 197 198 199 199 199 195 196 196 195 197 203 205 205 206 203 201 196 194 198 202 202 203 203 202 201 201 201 200 197 195 192 194 195 195 195 196 195 199 205
192 241 181 152 185 152 177 201 218 181 179 243 216 219 250 283 254 207 200 249 262 265 258 255 260 272 247 245 276 288 280 283 299 287 290 303 294 282 277 275 255 203 207 239 207 198 195 193 196 194 194 196 193 193 194 194 198 199 201 203 205 206 207 203 199 196 201 202 202 202 202 201 202 200 200 197 196 196 197 196 196 193 193 195 199 204
215 199 257 135 128 161 207 198 227 202 195 192 209 224 199 231 25 297 270 237 255 260 257 267 247 245 267 176 230 289 287 282 282 285 286 287 291 290 287 286 292 305 307 294 274 234 204 195 191 187 186 196 187 189 191 188 195 197 198 202 203 204 202 204 201 199 201 202 206 206 203 201 202 203 203 199 199 199 200 196 197 197 197 196 204 204
215 190 231 164 191 200 227 196 232 249 227 210 208 222 215 216 209 225 244 220 245 255 260 262 260 259 272 111 223 284 287 284 275 269 278 283 288 294 296 289 286 290 297 291 267 241 217 196 184 184 180 190 185 186 193 190 192 195 198 200 202 203 207 204 201 200 199 200 202 204 206 205 203 203 203 201 199 201 201 197 195 195 197 201 203 206
228 211 221 230 208 224 190 75 14 329 318 274 244 231 222 234 239 242 248 241 209 244 261 264 275 261 253 161 255 274 280 287 291 286 277 280 280 286 286 286 286 278 282 292 289 281 245 203 193 186 185 186 189 191 191 193 194 196 197 199 201 204 206 205 204 203 199 197 199 201 203 205 203 202 204 203 201 200 199 197 195 193 196 197 197 199
57 206 215 233 238 126 114 109 120 16 271 239 234 256 251 237 238 248 255 268 256 243 219 248 251 255 247 208 242 257 278 288 283 264 268 269 280 280 277 276 276 273 269 270 259 250 242 224 209 208 201 198 193 193 193 194 194 193 194 197 200 204 206 206 203 202 201 199 198 198 197 201 201 203 203 204 203 202 199 197 197 193 195 198 197 196
196 209 226 223 229 228 209 193 208 179 225 235 233 218 230 242 245 252 274 279 261 255 266 263 265 268 105 164 194 244 277 279 274 263 250 263 263 266 268 271 278 282 281 274 261 250 243 231 229 229 216 209 201 194 191 195 194 191 191 194 199 202 202 205 202 201 199 198 197 195 196 199 201 202 202 201 201 201 199 198 196 193 197 198 201 197
221 199 201 223 223 225 225 221 221 204 207 220 237 235 213 230 231 217 235 245 255 250 253 257 263 266 263 168 212 247 269 269 269 277 281 263 267 269 272 280 289 293 291 292 288 268 254 248 245 237 224 221 211 206 189 191 191 189 188 193 196 199 197 202 201 201 200 200 200 195 196 199 198 199 199 201 202 198 199 198 196 192 196 197 197 191
219 224 221 229 237 236 236 234 46 300 215 212 201 211 214 220 230 234 252 252 249 256 255 251 261 275 274 262 266 268 261 266 274 278 281 275 252 239 255 272 282 286 287 288 289 283 266 252 247 249 236 227 218 205 196 184 181 184 189 189 192 197 198 198 199 200 202 205 206 207 205 202 204 200 202 203 205 201 199 199 197 197 198 196 194 187
217 232 220 234 243 251 257 255 118 278 239 225 229 213 218 217 217 227 230 241 250 268 263 256 266 271 274 277 274 279 283 284 287 288 276 269 277 285 283 286 286 281 278 276 274 274 268 264 259 245 237 227 223 203 199 184 182 183 185 187 191 192 193 194 199 202 205 210 210 210 207 209 211 206 205 205 206 202 198 194 195 199 199 196 196 190
218 226 220 224 236 242 247 255 238 236 246 246 240 240 228 218 218 223 233 242 248 250 263 274 276 273 275 275 282 284 289 292 294 289 294 311 310 293 287 286 285 284 283 279 274 272 269 267 263 251 238 224 212 202 198 191 181 182 182 187 186 189 193 193 197 204 206 210 211 210 211 210 212 214 210 206 207 202 197 198 195 195 195 193 197 197
240 236 230 219 240 237 235 234 226 236 237 238 237 235 240 235 236 237 241 243 247 255 259 268 273 276 279 280 283 285 285 285 285 291 294 287 288 291 287 285 283 282 282 283 285 286 281 273 267 260 242 220 214 206 203 201 188 183 184 186 185 188 189 191 200 204 204 208 210 210 211 207 211 214 211 209 213 205 200 197 193 188 207 198 198 197
223 220 145 202 236 240 234 232 229 225 234 238 236 236 237 235 237 239 247 249 256 261 264 265 271 272 266 273 277 276 276 280 289 288 294 300 297 294 292 288 287 286 288 288 284 282 279 273 265 258 241 223 220 215 211 205 194 187 186 183 183 187 188 192 197 203 206 207 207 207 208 208 207 212 213 209 215 211 205 200 190 181 187 191 201 198
191 228 168 221 235 242 232 231 228 230 232 238 237 233 232 232 236 231 237 238 246 255 260 265 265 264 271 282 291 286 284 295 296 299 297 297 301 302 299 299 299 297 293 289 288 287 284 278 268 255 245 239 227 215 211 202 199 187 187 181 182 181 183 191 197 203 204 207 202 207 208 207 208 211 211 208 212 213 204 193 182 178 183 181 167 209
191 211 189 209 230 241 240 228 234 232 237 240 236 234 233 236 240 240 242 239 240 251 257 256 258 269 289 342 312 300 310 302 295 298 299 300 301 303 311 319 320 317 317 319 316 309 298 289 283 274 259 249 237 224 216 205 203 194 190 179 175 170 182 190 197 201 205 204 205 202 207 206 209 213 213 214 214 212 203 193 189 188 187 190 195 193
235 214 210 209 234 242 242 240 243 244 237 236 237 227 228 237 233 239 242 245 246 240 254 263 271 278 283 298 321 319 314 307 305 297 293 291 303 326 331 325 322 323 322 319 314 308 305 298 286 277 273 270 263 239 227 216 210 193 186 177 171 175 183 190 195 201 202 203 204 203 202 209 210 214 213 213 212 208 204 199 195 194 194 194 189 195
254 226 229 218 220 239 216 197 223 236 242 262 264 236 223 229 238 246 251 250 249 246 248 252 262 278 309 333 328 335 312 298 287 283 287 345 18 345 335 331 332 332 325 321 319 314 307 300 289 278 270 268 273 266 234 206 194 180 179 178 178 180 183 191 196 200 203 205 206 204 204 206 207 211 211 206 205 202 201 201 200 197 197 193 191 194
245 223 171 180 216 241 218 210 231 241 330 252 224 225 263 251 245 251 254 253 255 267 278 270 273 290 322 321 329 317 322 303 288 275 280 68 18 6 350 347 340 334 326 323 316 307 304 300 289 280 275 271 259 241 224 212 193 189 187 181 183 184 186 191 198 202 201 205 204 205 203 203 202 201 202 201 199 200 201 201 203 200 203 199 195 200
241 325 270 220 217 227 204 214 232 264 204 185 157 194 202 220 218 213 233 239 183 153 246 258 254 272 328 319 335 327 320 295 278 261 109 22 18 3 351 349 348 339 332 328 323 312 304 299 287 276 273 265 253 244 227 209 195 194 188 184 188 189 191 196 200 203 200 204 202 203 201 201 200 198 199 197 200 201 201 201 202 203 199 202 199 193
238 217 198 230 218 211 234 237 243 241 253 241 223 119 81 69 50 66 251 249 157 174 178 220 238 252 271 292 312 331 306 288 269 245 113 11 1 347 341 337 343 347 345 344 342 341 330 313 294 275 266 261 250 242 229 210 196 191 191 191 191 193 196 202 207 206 203 204 204 202 201 200 199 196 196 196 200 201 202 202 202 203 201 207 202 203
195 209 225 218 232 208 219 239 241 250 261 322 112 97 109 78 192 197 232 254 172 157 135 233 251 274 304 306 316 316 299 283 279 278 23 355 343 341 334 335 340 347 353 1 358 351 345 331 310 297 283 265 256 235 220 212 200 196 190 187 189 192 198 205 212 213 213 211 207 204 202 201 202 200 197 200 202 202 201 201 201 198 199 204 208 206
175 187 195 222 231 231 235 232 244 233 262 175 133 140 129 135 142 204 246 251 127 162 108 253 256 301 287 307 311 293 284 282 285 311 348 333 329 333 338 335 333 339 350 1 11 2 352 340 322 301 280 270 257 235 213 208 204 200 191 183 186 193 203 207 215 220 220 220 215 211 206 203 204 203 201 203 201 200 202 198 195 196 196 199 205 197
184 194 198 219 223 228 226 243 255 249 152 147 160 141 141 142 197 236 244 351 132 174 188 245 289 304 298 290 289 286 284 294 302 309 310 313 318 327 335 330 326 329 341 355 4 2 3 358 356 337 319 313 293 241 211 205 198 190 185 177 186 195 202 205 207 214 217 216 216 212 210 205 205 205 204 205 202 199 199 194 193 190 191 192 197 195
196 192 210 217 227 229 228 236 241 256 184 139 135 158 166 186 216 242 36 137 178 210 227 265 280 291 292 284 278 279 290 298 294 296 300 306 313 315 322 330 331 332 338 351 357 11 4 2 360 358 360 353 327 271 220 204 195 187 176 181 191 191 189 191 191 200 206 214 216 215 212 209 205 203 203 203 200 196 195 192 184 181 188 191 193 191
196 194 204 211 216 227 230 238 234 234 154 184 139 173 177 225 278 42 168 189 209 264 224 242 251 267 276 282 280 279 283 284 289 292 297 300 305 312 321 330 335 336 338 340 347 11 6 5 1 359 349 352 343 308 255 215 197 186 177 193 190 183 184 181 194 203 214 222 227 223 220 211 203 197 197 194 193 189 189 185 183 180 183 188 190 197
156 210 213 219 205 213 214 220 228 315 115 172 168 218 197 233 332 309 318 242 184 219 243 256 245 269 289 285 285 284 283 285 284 287 293 297 302 309 315 320 326 333 339 337 345 4 354 3 9 1 355 350 351 330 312 266 229 201 199 201 186 178 177 183 196 211 220 227 234 229 221 216 206 200 196 187 185 188 190 186 184 184 187 188 192 198
168 221 229 227 195 215 222 231 187 100 150 174 218 268 251 192 167 193 250 297 271 252 250 268 278 281 290 294 291 287 288 285 289 294 295 297 300 305 313 318 320 325 334 333 340 1 352 356 356 359 1 359 357 351 328 304 283 239 221 205 185 184 185 187 194 204 220 229 231 227 226 221 220 209 202 188 186 189 191 189 185 187 189 191 199 202
39 18 70 240 233 239 267 284 97 171 169 184 176 205 267 237 234 224 236 252 252 272 279 284 294 293 290 294 293 291 286 291 291 290 290 292 295 300 303 305 309 318 324 324 324 346 344 342 345 354 1 0 3 349 346 325 301 285 268 259 206 197 190 187 195 202 218 227 230 229 227 224 223 216 205 189 187 191 192 191 190 193 189 191 199 200
182 128 279 221 241 220 237 231 244 248 236 239 249 257 247 254 273 262 245 244 265 271 270 273 284 291 294 291 286 287 291 291 290 288 288 286 288 294 300 303 305 312 313 312 326 320 321 322 328 337 352 356 359 352 343 331 311 292 291 280 256 229 202 196 197 202 206 219 227 222 234 229 222 215 199 192 194 196 199 198 197 197 197 199 203 203
207 193 223 227 240 214 236 134 252 239 192 218 262 242 226 243 246 236 244 258 266 277 281 280 280 277 281 280 281 286 289 291 289 288 288 289 289 291 294 296 300 304 304 301 303 302 314 322 316 317 324 329 333 339 340 342 342 337 319 292 288 266 231 209 202 212 207 203 221 223 212 220 161 203 202 195 198 202 202 204 203 202 205 205 203 202
91 139 213 206 230 241 261 260 262 266 264 257 248 241 244 252 260 263 267 269 269 272 277 276 271 278 281 282 286 282 281 282 284 285 284 286 286 286 287 288 291 292 293 296 298 273 289 299 300 301 305 308 316 318 325 339 343 347 331 301 264 255 250 242 223 224 222 206 209 218 223 222 200 210 212 200 200 211 212 209 213 219 215 212 214 212
149 206 204 227 240 245 248 248 241 250 245 235 234 245 252 249 263 272 274 268 267 271 274 280 282 284 283 281 280 278 277 279 280 282 281 282 282 283 284 284 281 280 281 281 289 287 274 258 256 263 284 299 301 309 313 324 341 346 336 317 293 253 241 243 244 236 230 216 214 210 205 218 214 212 217 219 218 216 217 202 344 267 226 212 197 212
213 203 207 225 234 247 244 255 283 283 286 281 282 279 279 277 274 273 272 276 280 280 281 281 286 286 280 278 278 280 278 274 275 278 278 276 278 281 282 281 279 279 279 280 280 280 273 271 264 266 259 258 276 286 296 306 336 343 337 327 301 269 251 239 236 238 240 227 223 212 207 210 216 212 219 220 224 224 224 215 197 225 344 40 68 185